Flight Track Log - Related Links

Times and Time Zones

All times are in EDT time to prevent confusion due to time zone crossing. See the VOZ1555 flight status page for this flight to view local times or setup timezone preferences in your user account.

Time Position Orientation Groundspeed Altitude Reporting Facility
EDT Latitude Longitude Course Direction KTS MPH feet Rate Location/Type
08:17PM -33.9420 151.1780 168° South 20 23  Level FlightAware
08:17PM -33.9440 151.1790 157° South 20 23 17 Level FlightAware
08:18PM -33.9470 151.1790 180° South 16 18 19 Level FlightAware
08:18PM -33.9490 151.1800 157° South 21 24 21 Level FlightAware
08:19PM -33.9510 151.1810 157° South 15 17 23 Level FlightAware
08:19PM -33.9510 151.1830 90° East 17 20 26 Level FlightAware
08:20PM -33.9500 151.1860 68° East 6 7 29 Level FlightAware
08:20PM -33.9500 151.1870 90° East 7 8 36 Level FlightAware
08:22PM -33.9500 151.1880 90° East 8 9 44 Level FlightAware
08:22PM -33.9520 151.1890 157° South 71 82 100 429 Climbing FlightAware
08:23PM -33.9700 151.1940 167° South 149 171 600 1,733 Climbing FlightAware
08:23PM -33.9800 151.1990 157° South 153 176 1,400 2,780 Climbing FlightAware
08:24PM -33.9910 151.2160 128° Southeast 158 182 2,500 1,793 Climbing FlightAware
08:25PM -34.0260 151.2640 131° Southeast 217 250 4,000 1,674 Climbing FlightAware
08:25PM -34.0400 151.2950 119° Southeast 256 295 4,900 2,727 Climbing FlightAware
08:26PM -34.0450 151.3370 98° East 268 308 6,500 3,055 Climbing FlightAware
08:26PM -34.0490 151.3730 98° East 275 316 7,700 3,240 Climbing FlightAware
08:26PM -34.0530 151.4130 98° East 283 326 9,200 3,462 Climbing FlightAware
08:26PM -34.0537 151.4175 98° East 282 325 9,200 2,625 Level Aus ATC (RADAR)
08:27PM -34.0476 151.4407 98° East 292 336 9,900 2,824 Climbing Aus ATC (RADAR)
08:27PM -34.0300 151.4620 98° East 307 353 10,800 2,136 Climbing FlightAware
08:28PM -33.9740 151.4920 24° Northeast 336 387 12,000 2,028 Climbing FlightAware
08:28PM -33.9278 151.5158 24° Northeast 338 389 13,200 2,850 Climbing Aus ATC (RADAR)
08:28PM -33.9160 151.5220 24° Northeast 337 388 13,900 2,816 Climbing FlightAware
08:29PM -33.8560 151.5540 24° Northeast 350 403 15,500 2,541 Climbing FlightAware
08:30PM -33.7880 151.5890 23° Northeast 352 405 17,500 2,612 Climbing FlightAware
08:30PM -33.7270 151.6210 24° Northeast 356 410 19,200 2,262 Climbing FlightAware
08:31PM -33.6919 151.6389 24° Northeast 360 414 19,800 1,826 Climbing Aus ATC (RADAR)
08:31PM -33.6540 151.6590 24° Northeast 372 428 20,600 1,969 Climbing FlightAware
08:32PM -33.5900 151.6920 23° Northeast 381 438 21,900 1,855 Climbing FlightAware
08:32PM -33.5603 151.7032 23° Northeast 382 440 22,300 2,036 Climbing Aus ATC (RADAR)
08:33PM -33.4930 151.7260 23° Northeast 385 443 23,800 2,143 Climbing FlightAware
08:34PM -33.4150 151.7510 15° North 387 445 25,300 1,905 Climbing FlightAware
08:34PM -33.3792 151.7620 15° North 395 455 25,800 1,800 Climbing Aus ATC (RADAR)
08:34PM -33.3440 151.7740 15° North 398 458 26,500 1,588 Climbing FlightAware
08:35PM -33.2610 151.8010 15° North 398 458 27,600 1,465 Climbing FlightAware
08:36PM -33.1860 151.8250 15° North 402 463 28,600 1,226 Climbing FlightAware
08:37PM -33.0844 151.8567 15° North 414 476 29,500 1,179 Climbing Aus ATC (RADAR)
08:37PM -33.0840 151.8580 15° North 420 483 29,700 1,286 Climbing FlightAware
08:37PM -33.0080 151.8820 15° North 421 484 30,400 878 Climbing FlightAware
08:38PM -32.9254 151.9079 15° North 432 497 30,900 955 Climbing Aus ATC (RADAR)
08:38PM -32.9210 151.9100 15° North 435 501 31,100 1,116 Climbing FlightAware
08:39PM -32.8430 151.9350 15° North 432 497 31,700 963 Climbing FlightAware
08:39PM -32.7630 151.9610 15° North 437 503 32,400 1,065 Climbing FlightAware
08:40PM -32.7189 151.9740 15° North 442 509 32,800 1,200 Climbing Aus ATC (RADAR)
08:40PM -32.6840 151.9860 15° North 434 499 33,200 971 Climbing FlightAware
08:41PM -32.5860 152.0170 15° North 435 501 33,900 867 Climbing FlightAware
08:41PM -32.5060 152.0420 15° North 435 501 34,500 825 Climbing FlightAware
08:42PM -32.4260 152.0680 15° North 446 513 35,000 353 Climbing FlightAware
08:43PM -32.3350 152.0960 15° North 451 519 35,000  Level FlightAware
08:44PM -32.2540 152.1220 15° North 453 521 35,000 -143 Level FlightAware
08:44PM -32.2448 152.1243 15° North 454 522 34,900 -375 Descending Aus ATC (RADAR)
08:44PM -32.2189 152.1328 15° North 452 520 34,900 158 Level Aus ATC (RADAR)
08:44PM -32.1720 152.1480 15° North 447 514 35,000 87 Climbing FlightAware
08:45PM -32.0870 152.1740 15° North 463 533 35,000 -90 Level FlightAware
08:45PM -32.0296 152.1919 15° North 460 529 34,900  Descending Aus ATC (RADAR)
08:46PM -32.0070 152.2000 15° North 463 533 35,000 102 Climbing FlightAware
08:46PM -31.9130 152.2290 15° North 463 533 35,000  Level FlightAware
08:47PM -31.8330 152.2540 15° North 459 528 35,000  Level FlightAware
08:48PM -31.7390 152.2830 15° North 462 532 35,000 -92 Level FlightAware
08:48PM -31.6890 152.2987 15° North 458 527 34,900  Descending Aus ATC (RADAR)
08:48PM -31.6570 152.3090 15° North 463 533 35,000 98 Climbing FlightAware
08:49PM -31.5730 152.3350 15° North 460 529 35,000 -91 Level FlightAware
08:49PM -31.5133 152.3534 15° North 460 529 34,900 -154 Descending Aus ATC (RADAR)
08:50PM -31.4825 152.3629 15° North 459 528 34,900 286 Level Aus ATC (RADAR)
08:50PM -31.4860 152.3620 15° North 462 532 35,000 143 Climbing FlightAware
08:50PM -31.4000 152.3880 14° North 463 533 35,000 -76 Level FlightAware
08:51PM -31.3059 152.4169 14° North 465 535 34,900  Descending Aus ATC (RADAR)
08:51PM -31.3230 152.4110 14° North 463 533 35,000 133 Climbing FlightAware
08:52PM -31.2220 152.4430 15° North 463 533 35,000  Level FlightAware
08:53PM -31.1280 152.4710 14° North 463 533 35,000 -55 Level FlightAware
08:54PM -30.9863 152.5158 14° North 455 524 34,900  Descending Aus ATC (RADAR)
08:54PM -30.9610 152.5240 14° North 451 519 35,000 111 Climbing FlightAware
08:55PM -30.9030 152.5420 15° North 451 519 35,000 -102 Level FlightAware
08:55PM -30.8198 152.5665 15° North 464 534 34,900 -150 Descending Aus ATC (RADAR)
08:55PM -30.7887 152.5760 15° North 463 533 34,900 250 Level Aus ATC (RADAR)
08:55PM -30.8190 152.5680 15° North 451 519 35,000 133 Climbing FlightAware
08:56PM -30.7570 152.5880 15° North 451 519 35,000 -75 Level FlightAware
08:57PM -30.6072 152.6423 15° North 459 528 34,900  Descending Aus ATC (RADAR)
08:57PM -30.6750 152.6130 15° North 451 519 35,000 146 Climbing FlightAware
08:57PM -30.6120 152.6330 15° North 451 519 35,000  Level FlightAware
08:58PM -30.4370 152.7040 19° North 469 540 35,000  Level FlightAware
08:59PM -30.3600 152.7320 17° North 468 539 35,000 -77 Level FlightAware
08:59PM -30.2764 152.7611 17° North 460 529 34,900  Descending Aus ATC (RADAR)
09:00PM -30.2570 152.7690 17° North 466 536 35,000 125 Climbing FlightAware
09:00PM -30.1870 152.7940 17° North 466 536 35,000 -88 Level FlightAware
09:01PM -30.1085 152.8220 17° North 465 535 34,900  Descending Aus ATC (RADAR)
09:01PM -30.0900 152.8290 17° North 464 534 35,000  Climbing FlightAware
09:01PM -30.0777 152.8332 17° North 465 535 34,900  Descending Aus ATC (RADAR)
09:02PM -29.9980 152.8620 17° North 466 536 35,000 74 Climbing FlightAware
09:02PM -29.9180 152.8910 17° North 465 535 35,000  Level FlightAware
09:03PM -29.8300 152.9220 17° North 464 534 35,000  Level FlightAware
09:04PM -29.7470 152.9520 17° North 464 534 35,000  Level FlightAware
09:05PM -29.6430 152.9880 17° North 463 533 35,000 -73 Level FlightAware
09:05PM -29.5756 153.0133 17° North 463 533 34,900  Descending Aus ATC (RADAR)
09:05PM -29.5620 153.0170 17° North 461 531 35,000 125 Climbing FlightAware
09:06PM -29.4850 153.0450 18° North 462 532 35,000 -83 Level FlightAware
09:06PM -29.4110 153.0697 18° North 462 532 34,900  Descending Aus ATC (RADAR)
09:07PM -29.3990 153.0750 18° North 464 534 35,000 113 Climbing FlightAware
09:07PM -29.3070 153.1070 17° North 464 534 35,000  Level FlightAware
09:08PM -29.2240 153.1370 18° North 465 535 35,000 -107 Level FlightAware
09:08PM -29.1890 153.1470 18° North 457 526 34,900  Descending Aus ATC (RADAR)
09:09PM -29.1270 153.1710 18° North 464 534 35,000 74 Climbing FlightAware
09:10PM -29.0300 153.2050 17° North 458 527 35,000  Level FlightAware
09:10PM -28.9270 153.2410 17° North 467 537 35,000 -80 Level FlightAware
09:11PM -28.8660 153.2617 17° North 467 537 34,900  Descending Aus ATC (RADAR)
09:11PM -28.8410 153.2710 17° North 468 539 35,000 113 Climbing FlightAware
09:12PM -28.7610 153.2990 17° North 465 535 35,000 -88 Level FlightAware
09:12PM -28.7012 153.3195 17° North 464 534 34,900 -143 Descending Aus ATC (RADAR)
09:12PM -28.6705 153.3303 17° North 464 534 34,900 353 Level Aus ATC (RADAR)
09:12PM -28.6680 153.3310 17° North 463 533 35,000 143 Climbing FlightAware
09:13PM -28.5840 153.3600 17° North 464 534 35,000  Level FlightAware
09:14PM -28.5040 153.3880 17° North 463 533 35,000 -125 Level FlightAware
09:14PM -28.4863 153.3946 17° North 463 533 34,900  Descending Aus ATC (RADAR)
09:15PM -28.4100 153.4210 17° North 463 533 35,000 77 Climbing FlightAware
09:15PM -28.3280 153.4490 17° North 464 534 35,000  Level FlightAware
09:16PM -28.2350 153.4810 17° North 465 535 35,000  Level FlightAware
09:17PM -28.1520 153.5010 12° North 446 513 35,000  Level FlightAware
09:17PM -28.1130 153.5030 North 434 499 35,000  Level FlightAware
09:18PM -28.0110 153.5020 360° North 432 497 35,000 -95 Level FlightAware
09:18PM -27.9658 153.5025 360° North 430 495 34,900 -158 Descending Aus ATC (RADAR)
09:18PM -27.9361 153.5021 359° North 428 493 34,900 300 Level Aus ATC (RADAR)
09:19PM -27.9320 153.5010 359° North 431 496 35,000 128 Climbing FlightAware
09:19PM -27.8430 153.5000 359° North 430 495 35,000 -75 Level FlightAware
09:20PM -27.7670 153.5000 359° North 427 491 34,900  Descending Aus ATC (RADAR)
09:20PM -27.7620 153.4990 359° North 429 494 35,000 125 Climbing FlightAware
09:21PM -27.6730 153.4980 359° North 429 494 35,000  Level FlightAware
09:21PM -27.5970 153.4980 360° North 430 495 35,000  Level FlightAware
09:22PM -27.5030 153.4970 359° North 432 497 35,000 -83 Level FlightAware
09:23PM -27.4486 153.4963 359° North 432 497 34,900  Descending Aus ATC (RADAR)
09:23PM -27.4230 153.4960 359° North 432 497 35,000 111 Climbing FlightAware
09:23PM -27.3440 153.4950 359° North 430 495 35,000 -107 Level FlightAware
09:24PM -27.3087 153.4949 359° North 429 494 34,900  Descending Aus ATC (RADAR)
09:24PM -27.2530 153.4940 359° North 431 496 35,000  Climbing FlightAware
09:25PM -27.1994 153.4937 359° North 430 495 34,900  Descending Aus ATC (RADAR)
09:25PM -27.1740 153.4930 360° North 431 496 35,000  Climbing FlightAware
09:25PM -27.1696 153.4935 360° North 430 495 34,900 -667 Descending Aus ATC (RADAR)
09:25PM -27.0999 153.4925 360° North 430 495 34,600 -615 Descending Aus ATC (RADAR)
09:26PM -27.0930 153.4930 360° North 431 496 34,500 -2,204 Descending FlightAware
09:26PM -27.0030 153.4920 359° North 440 506 32,800 -2,329 Descending FlightAware
09:27PM -26.9220 153.4910 359° North 436 502 31,200 -2,329 Descending FlightAware
09:28PM -26.8320 153.4900 359° North 419 482 29,500 -2,361 Descending FlightAware
09:28PM -26.8002 153.4898 359° North 421 484 28,800 -2,154 Descending Aus ATC (RADAR)
09:28PM -26.7560 153.4890 359° North 397 457 28,100 -1,969 Descending FlightAware
09:29PM -26.6880 153.4730 348° North 365 420 26,700 -2,129 Descending FlightAware
09:29PM -26.6531 153.4609 348° North 366 421 25,900 -2,000 Descending Aus ATC (RADAR)
09:30PM -26.6296 153.4526 343° North 360 414 25,500 -1,565 Descending Aus ATC (RADAR)
09:30PM -26.6160 153.4480 343° North 354 407 25,300 -1,941 Descending FlightAware
09:30PM -26.5750 153.4334 343° North 354 407 24,400 -1,902 Descending Aus ATC (RADAR)
09:30PM -26.5540 153.4260 343° North 348 400 24,000 -1,800 Descending FlightAware
09:31PM -26.4830 153.4010 343° North 355 409 22,600 -1,714 Descending FlightAware
09:32PM -26.4320 153.3840 343° North 349 402 21,600 -1,938 Descending FlightAware
09:32PM -26.3817 153.3659 343° North 346 398 20,500 -2,167 Descending Aus ATC (RADAR)
09:32PM -26.3700 153.3620 343° North 339 390 20,300 -1,714 Descending FlightAware
09:33PM -26.3293 153.3483 343° North 339 390 19,500 -1,950 Descending Aus ATC (RADAR)
09:33PM -26.3069 153.3402 342° North 338 389 19,000 -1,440 Descending Aus ATC (RADAR)
09:33PM -26.2960 153.3370 342° North 337 388 18,900 -1,714 Descending FlightAware
09:34PM -26.2547 153.3215 342° North 339 390 18,000 -1,800 Descending Aus ATC (RADAR)
09:34PM -26.2350 153.3150 342° North 332 382 17,700 -1,800 Descending FlightAware
09:35PM -26.1823 153.2968 342° North 328 377 16,500 -1,714 Descending Aus ATC (RADAR)
09:35PM -26.1770 153.2950 342° North 324 373 16,500 -1,714 Level FlightAware
09:35PM -26.1324 153.2792 342° North 323 372 15,500 -1,737 Descending Aus ATC (RADAR)
09:35PM -26.1190 153.2750 342° North 317 365 15,400 -1,560 Descending FlightAware
09:36PM -26.0637 153.2558 342° North 308 354 14,200 -1,600 Descending Aus ATC (RADAR)
09:36PM -26.0630 153.2560 342° North 300 345 14,200 -1,560 Level FlightAware
09:37PM -25.9992 153.2352 342° North 289 333 12,900 -1,600 Descending Aus ATC (RADAR)
09:37PM -26.0000 153.2340 342° North 282 325 13,000 -1,350 Climbing FlightAware
09:37PM -25.9510 153.2170 343° North 278 320 12,000 -1,600 Descending FlightAware
09:38PM -25.9063 153.2018 343° North 280 322 11,000 -419 Descending Aus ATC (RADAR)
09:38PM -25.9070 153.2010 343° North 281 323 11,700 -1,371 Climbing FlightAware
09:39PM -25.8630 153.1863 343° North 281 323 10,200 -2,423 Descending Aus ATC (RADAR)
09:39PM -25.8350 153.1770 343° North 265 305 9,600 -1,560 Descending FlightAware
09:39PM -25.8046 153.1665 343° North 258 297 8,900 -1,200 Descending Aus ATC (RADAR)
09:40PM -25.7980 153.1640 343° North 239 275 8,900 -1,029 Level FlightAware
09:40PM -25.7680 153.1543 343° North 238 274 8,300 -1,200 Descending Aus ATC (RADAR)
09:40PM -25.7570 153.1480 343° North 228 262 8,100 -453 Descending FlightAware
09:41PM -25.7270 153.1300 343° North 226 260 7,900 -1,500 Descending FlightAware
09:41PM -25.7167 153.1267 343° North 222 255 7,100 -3,529 Descending Aus ATC (RADAR)
09:41PM -25.7033 153.1173 343° North 224 258 6,900 -1,102 Descending Aus ATC (RADAR)
09:42PM -25.6737 153.0988 331° Northwest 211 243 6,200 -1,071 Descending Aus ATC (RADAR)
09:43PM -25.6342 153.0751 332° Northwest 196 226 5,400 -709 Descending Aus ATC (RADAR)
09:44PM -25.5893 153.0516 335° Northwest 186 214 4,900 -273 Descending Aus ATC (RADAR)
09:44PM -25.5492 153.0365 341° North 183 211 4,900  Level Aus ATC (RADAR)
09:45PM -25.5209 153.0281 345° North 181 208 4,900 -436 Level Aus ATC (RADAR)
09:45PM -25.5055 153.0206 337° Northwest 181 208 4,500 -821 Descending Aus ATC (RADAR)
09:48PM -25.3655 152.9153 338° Northwest -796 Descending Aus ATC (Calculated)
09:50PM -25.3189 152.8803 326° Northwest  Level Estimated
09:50PM -25.3290 152.8990 331° Northwest 120 138 400  Level FlightAware
09:51PM -25.3189 152.8803 331° Northwest  Level Estimated
09:51PM -25.3240 152.8880 297° West 120 138 400  Level FlightAware
09:54PM -25.3188 152.8803 331° Northwest  Level FlightAware Approximate
09:55PM -25.3189 152.8803 331° Northwest  Level Estimated

Login

Don't have an account? Register now (free) for customized features, flight alerts, and more!